Darstellungsparameter: Aktuell verwendete Einstellungen:
Skalierung der Graphiken ... ?
xyx+y,   Skalierungsfaktor:      Skalierung: Modus: x, Faktor: 1
Darstellungszeitraum ... ?
Vom - - bis: - -   Zeitraum: 02.08.2020 - 02.08.2020
Min/Max/Avg-Anzeige ... ?
Zeige MMA aktuell
Zeige MMA Monat
Zeige MMA alles
Zeige --A aktuell
Zeige --A Monat
Zeige --A alles
Keine MMA-Anzeige
MMA:
Average (ber die Originaldaten)
MMA-Basis: 02.08.2020 - 02.08.2020
Quicknavigation für Darstellung... ?
Tage:      1T, 2T, 3T, 5T -1T -2T -3T -5T +1T +2T +3T +5T
Wochen: 1W, 2W, 3W -1W -2W -3W +1W +2W +3W
Monate: 1M, 3M, 6M -1M -3M -6M +1M +3M +6M
Jahre:    1J, 3J, 5J, 10J -1J -3J -5J -10J +1J +3J +5J +10J
Nutze für die Darstellung ... ?
Originaldaten oder Mittelwerte auf ...
Stundenbasis Tagesbasis Wochenbasis
Monatsbasis Jahresbasis      Datenbasis: Original-Daten
Darstellen als:
Statistik (Auto) Statistik J:M      Darstellung:
Zur Graphik,    zurück zur Übersicht aller Sensoren.
 
Tabellarische Datenbersicht: ?
 
Sensor: Nr:Datum:Temp:Abs-Feuchte:Windchill:Wind:
Aussen-T/F 1 02-08-2020 00:00:00 20.2 C 16.79 g/m*3 20.2 C 6.4 km/h
2 02-08-2020 00:05:00 20.2 C 16.79 g/m*3 20.2 C 4.8 km/h
3 02-08-2020 00:10:00 20.1 C 16.69 g/m*3 20.1 C 8.1 km/h
4 02-08-2020 00:15:00 20.1 C 16.69 g/m*3 20.1 C 4.8 km/h
5 02-08-2020 00:20:00 20.1 C 16.69 g/m*3 20.1 C 6.4 km/h
6 02-08-2020 00:25:00 20.1 C 16.69 g/m*3 20.1 C 6.4 km/h
7 02-08-2020 00:30:00 20.1 C 16.69 g/m*3 20.1 C 3.2 km/h
8 02-08-2020 00:35:00 20.1 C 16.69 g/m*3 20.1 C 4.8 km/h
9 02-08-2020 00:40:00 20.1 C 16.69 g/m*3 20.1 C 8.1 km/h
10 02-08-2020 00:45:00 20.1 C 16.69 g/m*3 20.1 C 4.8 km/h
11 02-08-2020 00:50:00 20.1 C 16.69 g/m*3 20.1 C 4.8 km/h
12 02-08-2020 00:55:00 20.1 C 16.69 g/m*3 20.1 C 6.4 km/h
13 02-08-2020 01:00:00 20.1 C 16.86 g/m*3 20.1 C 4.8 km/h
14 02-08-2020 01:05:00 20.1 C 16.86 g/m*3 20.1 C 4.8 km/h
15 02-08-2020 01:10:00 20.1 C 16.86 g/m*3 20.1 C 6.4 km/h
16 02-08-2020 01:15:00 20.1 C 16.86 g/m*3 20.1 C 3.2 km/h
17 02-08-2020 01:20:00 20.1 C 16.86 g/m*3 20.1 C 4.8 km/h
18 02-08-2020 01:25:00 20.1 C 16.86 g/m*3 20.1 C 1.6 km/h
19 02-08-2020 01:30:00 20.1 C 16.86 g/m*3 20.1 C 3.2 km/h
20 02-08-2020 01:35:00 20 C 16.59 g/m*3 20 C 9.7 km/h
21 02-08-2020 01:40:00 20 C 16.59 g/m*3 20 C 8.1 km/h
22 02-08-2020 01:45:00 19.9 C 16.49 g/m*3 19.9 C 6.4 km/h
23 02-08-2020 01:50:00 19.8 C 16.4 g/m*3 19.8 C 3.2 km/h
24 02-08-2020 01:55:00 19.8 C 16.4 g/m*3 19.8 C 0 km/h
25 02-08-2020 02:00:00 19.7 C 16.3 g/m*3 19.7 C 3.2 km/h
Sensor: Nr:Datum:Temp:Abs-Feuchte:Windchill:Wind:
Aussen-T/F 26 02-08-2020 02:05:00 19.7 C 16.3 g/m*3 19.7 C 3.2 km/h
27 02-08-2020 02:10:00 19.6 C 16.21 g/m*3 19.6 C 9.7 km/h
28 02-08-2020 02:15:00 19.6 C 16.21 g/m*3 19.6 C 0 km/h
29 02-08-2020 02:20:00 19.4 C 16.02 g/m*3 19.4 C 3.2 km/h
30 02-08-2020 02:25:00 19.4 C 16.02 g/m*3 19.4 C 3.2 km/h
31 02-08-2020 02:30:00 19.4 C 16.02 g/m*3 19.4 C 3.2 km/h
32 02-08-2020 02:35:00 19.3 C 15.92 g/m*3 19.3 C 1.6 km/h
33 02-08-2020 02:40:00 19.3 C 15.92 g/m*3 19.3 C 0 km/h
34 02-08-2020 02:45:00 19.3 C 15.92 g/m*3 19.3 C 0 km/h
35 02-08-2020 02:50:00 19.2 C 15.83 g/m*3 19.2 C 3.2 km/h
36 02-08-2020 02:55:00 19.1 C 15.74 g/m*3 19.1 C 6.4 km/h
37 02-08-2020 03:00:00 19.2 C 15.83 g/m*3 19.2 C 6.4 km/h
38 02-08-2020 03:05:00 19.1 C 15.74 g/m*3 19.1 C 1.6 km/h
39 02-08-2020 03:10:00 19.1 C 15.74 g/m*3 19.1 C 8.1 km/h
40 02-08-2020 03:15:00 19.1 C 15.74 g/m*3 19.1 C 0 km/h
41 02-08-2020 03:20:00 19 C 15.64 g/m*3 19 C 0 km/h
42 02-08-2020 03:25:00 18.9 C 15.55 g/m*3 18.9 C 6.4 km/h
43 02-08-2020 03:30:00 18.9 C 15.55 g/m*3 18.9 C 4.8 km/h
44 02-08-2020 03:35:00 18.9 C 15.55 g/m*3 18.9 C 0 km/h
45 02-08-2020 03:40:00 18.8 C 15.46 g/m*3 18.8 C 3.2 km/h
46 02-08-2020 03:45:00 18.8 C 15.46 g/m*3 18.8 C 4.8 km/h
47 02-08-2020 03:50:00 18.8 C 15.46 g/m*3 18.8 C 4.8 km/h
48 02-08-2020 03:55:00 18.8 C 15.46 g/m*3 18.8 C 4.8 km/h
49 02-08-2020 04:00:00 18.8 C 15.46 g/m*3 18.8 C 4.8 km/h
50 02-08-2020 04:05:00 18.8 C 15.62 g/m*3 18.8 C 3.2 km/h
Sensor: Nr:Datum:Temp:Abs-Feuchte:Windchill:Wind:
Aussen-T/F 51 02-08-2020 04:10:00 18.8 C 15.62 g/m*3 18.8 C 0 km/h
52 02-08-2020 04:15:00 18.8 C 15.62 g/m*3 18.8 C 4.8 km/h
53 02-08-2020 04:20:00 18.7 C 15.53 g/m*3 18.7 C 1.6 km/h
54 02-08-2020 04:25:00 18.7 C 15.37 g/m*3 18.7 C 1.6 km/h
55 02-08-2020 04:30:00 18.6 C 15.28 g/m*3 18.6 C 4.8 km/h
56 02-08-2020 04:35:00 18.4 C 15.1 g/m*3 18.4 C 1.6 km/h
57 02-08-2020 04:40:00 18.3 C 15.01 g/m*3 18.3 C 1.6 km/h
58 02-08-2020 04:45:00 18.2 C 14.92 g/m*3 18.2 C 4.8 km/h
59 02-08-2020 04:50:00 18.2 C 14.92 g/m*3 18.2 C 3.2 km/h
60 02-08-2020 04:55:00 18.1 C 14.83 g/m*3 18.1 C 3.2 km/h
61 02-08-2020 05:00:00 18.1 C 14.83 g/m*3 18.1 C 3.2 km/h
62 02-08-2020 05:05:00 17.9 C 14.66 g/m*3 17.9 C 1.6 km/h
63 02-08-2020 05:10:00 17.8 C 14.57 g/m*3 17.8 C 0 km/h
64 02-08-2020 05:15:00 17.7 C 14.48 g/m*3 17.7 C 3.2 km/h
65 02-08-2020 05:20:00 17.6 C 14.4 g/m*3 17.6 C 3.2 km/h
66 02-08-2020 05:25:00 17.6 C 14.4 g/m*3 17.6 C 3.2 km/h
67 02-08-2020 05:30:00 17.5 C 14.31 g/m*3 17.5 C 3.2 km/h
68 02-08-2020 05:35:00 17.5 C 14.31 g/m*3 17.5 C 4.8 km/h
69 02-08-2020 05:40:00 17.4 C 14.23 g/m*3 17.4 C 1.6 km/h
70 02-08-2020 05:45:00 17.3 C 14.14 g/m*3 17.3 C 1.6 km/h
71 02-08-2020 05:50:00 17.2 C 14.06 g/m*3 17.2 C 3.2 km/h
72 02-08-2020 05:55:00 17.1 C 13.97 g/m*3 17.1 C 1.6 km/h
73 02-08-2020 06:00:00 17.1 C 13.97 g/m*3 17.1 C 1.6 km/h
74 02-08-2020 06:05:00 17.1 C 13.97 g/m*3 17.1 C 1.6 km/h
75 02-08-2020 06:10:00 17.1 C 13.97 g/m*3 17.1 C 1.6 km/h
Sensor: Nr:Datum:Temp:Abs-Feuchte:Windchill:Wind:
Aussen-T/F 76 02-08-2020 06:15:00 17.1 C 13.97 g/m*3 17.1 C 4.8 km/h
77 02-08-2020 06:20:00 17.1 C 13.97 g/m*3 17.1 C 4.8 km/h
78 02-08-2020 06:25:00 17.1 C 13.97 g/m*3 17.1 C 1.6 km/h
79 02-08-2020 06:30:00 17.1 C 13.97 g/m*3 17.1 C 4.8 km/h
80 02-08-2020 06:35:00 17.1 C 13.97 g/m*3 17.1 C 4.8 km/h
81 02-08-2020 06:40:00 17.1 C 13.97 g/m*3 17.1 C 1.6 km/h
82 02-08-2020 06:45:00 17 C 13.89 g/m*3 17 C 3.2 km/h
83 02-08-2020 06:50:00 16.9 C 13.66 g/m*3 16.9 C 8.1 km/h
84 02-08-2020 06:55:00 17.1 C 13.68 g/m*3 17.1 C 8.1 km/h
85 02-08-2020 07:00:00 17.2 C 13.77 g/m*3 17.2 C 0 km/h
86 02-08-2020 07:05:00 17.3 C 13.7 g/m*3 17.3 C 4.8 km/h
87 02-08-2020 07:10:00 17.3 C 13.85 g/m*3 17.3 C 0 km/h
88 02-08-2020 07:15:00 17.4 C 13.93 g/m*3 17.4 C 0 km/h
89 02-08-2020 07:20:00 17.4 C 13.93 g/m*3 17.4 C 0 km/h
90 02-08-2020 07:25:00 17.5 C 14.01 g/m*3 17.5 C 0 km/h
91 02-08-2020 07:30:00 17.6 C 14.1 g/m*3 17.6 C 1.6 km/h
92 02-08-2020 07:35:00 17.6 C 14.1 g/m*3 17.6 C 3.2 km/h
93 02-08-2020 07:40:00 17.6 C 14.1 g/m*3 17.6 C 3.2 km/h
94 02-08-2020 07:45:00 17.7 C 14.18 g/m*3 17.7 C 3.2 km/h
95 02-08-2020 07:50:00 17.7 C 14.33 g/m*3 17.7 C 1.6 km/h
96 02-08-2020 07:55:00 17.8 C 14.42 g/m*3 17.8 C 0 km/h
97 02-08-2020 08:00:00 17.8 C 14.42 g/m*3 17.8 C 0 km/h
98 02-08-2020 08:05:00 17.8 C 14.42 g/m*3 17.8 C 0 km/h
99 02-08-2020 08:10:00 17.9 C 14.5 g/m*3 17.9 C 0 km/h
100 02-08-2020 08:15:00 17.9 C 14.5 g/m*3 17.9 C 0 km/h
Sensor: Nr:Datum:Temp:Abs-Feuchte:Windchill:Wind:
Aussen-T/F 101 02-08-2020 08:20:00 18 C 14.44 g/m*3 18 C 0 km/h
102 02-08-2020 08:25:00 18.2 C 14.77 g/m*3 18.2 C 0 km/h
103 02-08-2020 08:30:00 18.3 C 14.85 g/m*3 18.3 C 0 km/h
104 02-08-2020 08:35:00 18.4 C 14.94 g/m*3 18.4 C 0 km/h
105 02-08-2020 08:40:00 18.5 C 15.03 g/m*3 18.5 C 0 km/h
106 02-08-2020 08:45:00 18.4 C 14.63 g/m*3 18.4 C 0 km/h
107 02-08-2020 08:50:00 18.4 C 14.31 g/m*3 18.4 C 4.8 km/h
108 02-08-2020 08:55:00 18.5 C 14.24 g/m*3 18.5 C 0 km/h
109 02-08-2020 09:00:00 18.7 C 14.57 g/m*3 18.7 C 1.6 km/h
110 02-08-2020 09:05:00 18.7 C 13.93 g/m*3 18.7 C 1.6 km/h
111 02-08-2020 09:10:00 18.8 C 13.85 g/m*3 18.8 C 0 km/h
112 02-08-2020 09:15:00 19.1 C 14.1 g/m*3 19.1 C 4.8 km/h
113 02-08-2020 09:20:00 19.3 C 14.26 g/m*3 19.3 C 8.1 km/h
114 02-08-2020 09:25:00 19.4 C 13.85 g/m*3 19.4 C 4.8 km/h
115 02-08-2020 09:30:00 19.6 C 14.01 g/m*3 19.6 C 3.2 km/h
116 02-08-2020 09:35:00 19.7 C 13.92 g/m*3 19.7 C 1.6 km/h
117 02-08-2020 09:40:00 19.8 C 14.01 g/m*3 19.8 C 1.6 km/h
118 02-08-2020 09:45:00 19.9 C 14.09 g/m*3 19.9 C 3.2 km/h
119 02-08-2020 09:50:00 20.2 C 13.99 g/m*3 20.2 C 6.4 km/h
120 02-08-2020 09:55:00 20.3 C 14.07 g/m*3 20.3 C 8.1 km/h
121 02-08-2020 10:00:00 20.4 C 13.8 g/m*3 20.4 C 6.4 km/h
122 02-08-2020 10:05:00 20.6 C 13.42 g/m*3 20.6 C 9.7 km/h
123 02-08-2020 10:10:00 20.7 C 13.32 g/m*3 20.7 C 9.7 km/h
124 02-08-2020 10:15:00 20.7 C 13.68 g/m*3 20.7 C 4.8 km/h
125 02-08-2020 10:20:00 20.8 C 13.4 g/m*3 20.8 C 8.1 km/h
Sensor: Nr:Datum:Temp:Abs-Feuchte:Windchill:Wind:
Aussen-T/F 126 02-08-2020 10:25:00 21 C 13.74 g/m*3 21 C 6.4 km/h
127 02-08-2020 10:30:00 21.2 C 13.71 g/m*3 21.2 C 9.7 km/h
128 02-08-2020 10:35:00 21.3 C 13.42 g/m*3 21.3 C 9.7 km/h
129 02-08-2020 10:40:00 21.4 C 13.5 g/m*3 21.4 C 8.1 km/h
130 02-08-2020 10:45:00 21.5 C 13.58 g/m*3 21.5 C 6.4 km/h
131 02-08-2020 10:50:00 21.6 C 13.47 g/m*3 21.6 C 11.3 km/h
132 02-08-2020 10:55:00 21.6 C 13.66 g/m*3 21.6 C 12.9 km/h
133 02-08-2020 11:00:00 21.7 C 13.73 g/m*3 21.7 C 12.9 km/h
134 02-08-2020 11:05:00 21.8 C 13.81 g/m*3 21.8 C 9.7 km/h
135 02-08-2020 11:10:00 21.9 C 13.89 g/m*3 21.9 C 1.6 km/h
136 02-08-2020 11:15:00 22.2 C 13.74 g/m*3 22.2 C 8.1 km/h
137 02-08-2020 11:20:00 22.2 C 13.55 g/m*3 22.2 C 3.2 km/h
138 02-08-2020 11:25:00 22.3 C 13.62 g/m*3 22.3 C 9.7 km/h
139 02-08-2020 11:30:00 22.4 C 13.7 g/m*3 22.4 C 9.7 km/h
140 02-08-2020 11:35:00 22.3 C 13.43 g/m*3 22.3 C 11.3 km/h
141 02-08-2020 11:40:00 22.3 C 13.62 g/m*3 22.3 C 11.3 km/h
142 02-08-2020 11:45:00 22.3 C 13.43 g/m*3 22.3 C 8.1 km/h
143 02-08-2020 11:50:00 22.3 C 13.43 g/m*3 22.3 C 9.7 km/h
144 02-08-2020 11:55:00 22.3 C 13.23 g/m*3 22.3 C 4.8 km/h
145 02-08-2020 12:00:00 22.4 C 13.31 g/m*3 22.4 C 6.4 km/h
146 02-08-2020 12:05:00 22.4 C 12.91 g/m*3 22.4 C 6.4 km/h
147 02-08-2020 12:10:00 22.5 C 13.18 g/m*3 22.5 C 4.8 km/h
148 02-08-2020 12:15:00 22.6 C 13.06 g/m*3 22.6 C 8.1 km/h
149 02-08-2020 12:20:00 22.6 C 13.06 g/m*3 22.6 C 8.1 km/h
150 02-08-2020 12:25:00 22.7 C 12.93 g/m*3 22.7 C 8.1 km/h
Sensor: Nr:Datum:Temp:Abs-Feuchte:Windchill:Wind:
Aussen-T/F 151 02-08-2020 12:30:00 22.7 C 11.92 g/m*3 22.7 C 11.3 km/h
152 02-08-2020 12:35:00 22.7 C 11.92 g/m*3 22.7 C 12.9 km/h
153 02-08-2020 12:40:00 22.7 C 11.92 g/m*3 22.7 C 8.1 km/h
154 02-08-2020 12:45:00 22.7 C 12.12 g/m*3 22.7 C 9.7 km/h
155 02-08-2020 12:50:00 22.8 C 12.8 g/m*3 22.8 C 8.1 km/h
156 02-08-2020 12:55:00 22.8 C 12.6 g/m*3 22.8 C 12.9 km/h
157 02-08-2020 13:00:00 22.9 C 12.67 g/m*3 22.9 C 11.3 km/h
158 02-08-2020 13:05:00 23 C 12.95 g/m*3 23 C 6.4 km/h
159 02-08-2020 13:10:00 23.2 C 12.68 g/m*3 23.2 C 6.4 km/h
160 02-08-2020 13:15:00 23.2 C 12.89 g/m*3 23.2 C 4.8 km/h
161 02-08-2020 13:20:00 23.3 C 12.96 g/m*3 23.3 C 9.7 km/h
162 02-08-2020 13:25:00 23.4 C 12.62 g/m*3 23.4 C 11.3 km/h
163 02-08-2020 13:30:00 23.5 C 12.9 g/m*3 23.5 C 8.1 km/h
164 02-08-2020 13:35:00 23.6 C 12.97 g/m*3 23.6 C 6.4 km/h
165 02-08-2020 13:40:00 23.6 C 12.97 g/m*3 23.6 C 8.1 km/h
166 02-08-2020 13:45:00 23.7 C 12.83 g/m*3 23.7 C 6.4 km/h
167 02-08-2020 13:50:00 23.7 C 12.83 g/m*3 23.7 C 9.7 km/h
168 02-08-2020 13:55:00 23.7 C 12.19 g/m*3 23.7 C 12.9 km/h
169 02-08-2020 14:00:00 23.6 C 12.34 g/m*3 23.6 C 12.9 km/h
170 02-08-2020 14:05:00 23.5 C 12.05 g/m*3 23.5 C 8.1 km/h
171 02-08-2020 14:10:00 23.6 C 12.34 g/m*3 23.6 C 12.9 km/h
172 02-08-2020 14:15:00 23.6 C 12.34 g/m*3 23.6 C 14.5 km/h
173 02-08-2020 14:20:00 23.7 C 12.19 g/m*3 23.7 C 12.9 km/h
174 02-08-2020 14:25:00 23.8 C 12.05 g/m*3 23.8 C 11.3 km/h
175 02-08-2020 14:30:00 23.8 C 11.83 g/m*3 23.8 C 9.7 km/h
Sensor: Nr:Datum:Temp:Abs-Feuchte:Windchill:Wind:
Aussen-T/F 176 02-08-2020 14:35:00 23.8 C 12.05 g/m*3 23.8 C 9.7 km/h
177 02-08-2020 14:40:00 23.8 C 12.05 g/m*3 23.8 C 11.3 km/h
178 02-08-2020 14:45:00 23.8 C 12.05 g/m*3 23.8 C 11.3 km/h
179 02-08-2020 14:50:00 23.8 C 11.83 g/m*3 23.8 C 11.3 km/h
180 02-08-2020 14:55:00 23.8 C 11.62 g/m*3 23.8 C 3.2 km/h
181 02-08-2020 15:00:00 24 C 12.18 g/m*3 24 C 9.7 km/h
182 02-08-2020 15:05:00 24.3 C 12.39 g/m*3 24.3 C 12.9 km/h
183 02-08-2020 15:10:00 24.5 C 11.86 g/m*3 24.5 C 3.2 km/h
184 02-08-2020 15:15:00 24.6 C 11.93 g/m*3 24.6 C 8.1 km/h
185 02-08-2020 15:20:00 24.7 C 11.77 g/m*3 24.7 C 9.7 km/h
186 02-08-2020 15:25:00 24.6 C 11.7 g/m*3 24.6 C 11.3 km/h
187 02-08-2020 15:30:00 24.5 C 11.64 g/m*3 24.5 C 12.9 km/h
188 02-08-2020 15:35:00 24.7 C 11.77 g/m*3 24.7 C 6.4 km/h
189 02-08-2020 15:40:00 24.9 C 11.22 g/m*3 24.9 C 12.9 km/h
190 02-08-2020 15:45:00 24.8 C 11.15 g/m*3 24.8 C 14.5 km/h
191 02-08-2020 15:50:00 24.7 C 11.09 g/m*3 24.7 C 11.3 km/h
192 02-08-2020 15:55:00 25.1 C 11.34 g/m*3 25.1 C 14.5 km/h
193 02-08-2020 16:00:00 25.3 C 11.24 g/m*3 25.3 C 8.1 km/h
194 02-08-2020 16:05:00 25.2 C 11.17 g/m*3 25.2 C 4.8 km/h
195 02-08-2020 16:10:00 25.2 C 11.17 g/m*3 25.2 C 9.7 km/h
196 02-08-2020 16:15:00 25.3 C 11 g/m*3 25.3 C 9.7 km/h
197 02-08-2020 16:20:00 25.7 C 11.01 g/m*3 25.7 C 9.7 km/h
198 02-08-2020 16:25:00 25.8 C 11.07 g/m*3 25.8 C 9.7 km/h
199 02-08-2020 16:30:00 25.7 C 11.49 g/m*3 25.7 C 11.3 km/h
200 02-08-2020 16:35:00 26.1 C 11.26 g/m*3 26.1 C 14.5 km/h
Sensor: Nr:Datum:Temp:Abs-Feuchte:Windchill:Wind:
Aussen-T/F 201 02-08-2020 16:40:00 26.3 C 11.88 g/m*3 26.3 C 14.5 km/h
202 02-08-2020 16:45:00 26.1 C 11.75 g/m*3 26.1 C 11.3 km/h
203 02-08-2020 16:50:00 25.8 C 11.8 g/m*3 25.8 C 16.1 km/h
204 02-08-2020 16:55:00 25.9 C 12.1 g/m*3 25.9 C 12.9 km/h
205 02-08-2020 17:00:00 26 C 11.93 g/m*3 26 C 14.5 km/h
206 02-08-2020 17:05:00 26.1 C 12.24 g/m*3 26.1 C 8.1 km/h
207 02-08-2020 17:10:00 26.3 C 12.13 g/m*3 26.3 C 12.9 km/h
208 02-08-2020 17:15:00 26.4 C 11.7 g/m*3 26.4 C 12.9 km/h
209 02-08-2020 17:20:00 26.4 C 12.2 g/m*3 26.4 C 14.5 km/h
210 02-08-2020 17:25:00 26.3 C 12.13 g/m*3 26.3 C 11.3 km/h
211 02-08-2020 17:30:00 25.9 C 12.1 g/m*3 25.9 C 12.9 km/h
212 02-08-2020 17:35:00 25.8 C 12.28 g/m*3 25.8 C 9.7 km/h
213 02-08-2020 17:40:00 26 C 12.17 g/m*3 26 C 9.7 km/h
214 02-08-2020 17:45:00 26.2 C 12.06 g/m*3 26.2 C 17.7 km/h
215 02-08-2020 17:50:00 26.1 C 12 g/m*3 26.1 C 17.7 km/h
216 02-08-2020 17:55:00 26 C 11.69 g/m*3 26 C 12.9 km/h
217 02-08-2020 18:00:00 26 C 12.17 g/m*3 26 C 14.5 km/h
218 02-08-2020 18:05:00 26.2 C 11.82 g/m*3 26.2 C 9.7 km/h
219 02-08-2020 18:10:00 26.5 C 11.77 g/m*3 26.5 C 12.9 km/h
220 02-08-2020 18:15:00 26.7 C 11.64 g/m*3 26.7 C 9.7 km/h
221 02-08-2020 18:20:00 26.7 C 11.39 g/m*3 26.7 C 14.5 km/h
222 02-08-2020 18:25:00 26.4 C 11.2 g/m*3 26.4 C 11.3 km/h
223 02-08-2020 18:30:00 26 C 10.96 g/m*3 26 C 12.9 km/h
224 02-08-2020 18:35:00 25.5 C 11.13 g/m*3 25.5 C 12.9 km/h
225 02-08-2020 18:40:00 25.4 C 10.83 g/m*3 25.4 C 8.1 km/h
Sensor: Nr:Datum:Temp:Abs-Feuchte:Windchill:Wind:
Aussen-T/F 226 02-08-2020 18:45:00 25.6 C 10.71 g/m*3 25.6 C 14.5 km/h
227 02-08-2020 18:50:00 25.8 C 10.59 g/m*3 25.8 C 11.3 km/h
228 02-08-2020 18:55:00 25.9 C 10.65 g/m*3 25.9 C 11.3 km/h
229 02-08-2020 19:00:00 26.1 C 10.77 g/m*3 26.1 C 12.9 km/h
230 02-08-2020 19:05:00 25.9 C 10.65 g/m*3 25.9 C 14.5 km/h
231 02-08-2020 19:10:00 25.9 C 11.14 g/m*3 25.9 C 8.1 km/h
232 02-08-2020 19:15:00 25.7 C 10.77 g/m*3 25.7 C 11.3 km/h
233 02-08-2020 19:20:00 25.6 C 10.48 g/m*3 25.6 C 12.9 km/h
234 02-08-2020 19:25:00 25.5 C 10.42 g/m*3 25.5 C 9.7 km/h
235 02-08-2020 19:30:00 25.6 C 10.24 g/m*3 25.6 C 11.3 km/h
236 02-08-2020 19:35:00 25.5 C 10.42 g/m*3 25.5 C 8.1 km/h
237 02-08-2020 19:40:00 25.4 C 10.59 g/m*3 25.4 C 8.1 km/h
238 02-08-2020 19:45:00 25.2 C 10.48 g/m*3 25.2 C 8.1 km/h
239 02-08-2020 19:50:00 25.1 C 10.65 g/m*3 25.1 C 9.7 km/h
240 02-08-2020 19:55:00 24.9 C 10.53 g/m*3 24.9 C 9.7 km/h
241 02-08-2020 20:00:00 24.8 C 10.7 g/m*3 24.8 C 11.3 km/h
242 02-08-2020 20:05:00 24.6 C 10.58 g/m*3 24.6 C 9.7 km/h
243 02-08-2020 20:10:00 24.4 C 10.68 g/m*3 24.4 C 12.9 km/h
244 02-08-2020 20:15:00 24.2 C 10.78 g/m*3 24.2 C 14.5 km/h
245 02-08-2020 20:20:00 24 C 11.31 g/m*3 24 C 8.1 km/h
246 02-08-2020 20:25:00 23.8 C 11.62 g/m*3 23.8 C 8.1 km/h
247 02-08-2020 20:30:00 23.6 C 11.7 g/m*3 23.6 C 8.1 km/h
248 02-08-2020 20:35:00 23.3 C 12.13 g/m*3 23.3 C 8.1 km/h
249 02-08-2020 20:40:00 23 C 12.13 g/m*3 23 C 11.3 km/h
250 02-08-2020 20:45:00 22.8 C 11.99 g/m*3 22.8 C 6.4 km/h
Sensor: Nr:Datum:Temp:Abs-Feuchte:Windchill:Wind:
Aussen-T/F 251 02-08-2020 20:50:00 22.6 C 12.05 g/m*3 22.6 C 6.4 km/h
252 02-08-2020 20:55:00 22.4 C 11.92 g/m*3 22.4 C 3.2 km/h
253 02-08-2020 21:00:00 22.2 C 11.58 g/m*3 22.2 C 3.2 km/h
254 02-08-2020 21:05:00 22 C 11.84 g/m*3 22 C 8.1 km/h
255 02-08-2020 21:10:00 21.8 C 11.7 g/m*3 21.8 C 4.8 km/h
256 02-08-2020 21:15:00 21.7 C 11.64 g/m*3 21.7 C 4.8 km/h
257 02-08-2020 21:20:00 21.6 C 11.57 g/m*3 21.6 C 3.2 km/h
258 02-08-2020 21:25:00 21.4 C 11.62 g/m*3 21.4 C 8.1 km/h
259 02-08-2020 21:30:00 21.3 C 11.93 g/m*3 21.3 C 4.8 km/h
260 02-08-2020 21:35:00 21.1 C 12.16 g/m*3 21.1 C 1.6 km/h
261 02-08-2020 21:40:00 20.7 C 11.88 g/m*3 20.7 C 0 km/h
262 02-08-2020 21:45:00 20.3 C 11.78 g/m*3 20.3 C 0 km/h
263 02-08-2020 21:50:00 20 C 11.92 g/m*3 20 C 1.6 km/h
264 02-08-2020 21:55:00 19.8 C 11.96 g/m*3 19.8 C 0 km/h
265 02-08-2020 22:00:00 19.6 C 12.15 g/m*3 19.6 C 0 km/h
266 02-08-2020 22:05:00 19.4 C 11.85 g/m*3 19.4 C 0 km/h
267 02-08-2020 22:10:00 19.3 C 12.11 g/m*3 19.3 C 3.2 km/h
268 02-08-2020 22:15:00 19.2 C 12.2 g/m*3 19.2 C 1.6 km/h
269 02-08-2020 22:20:00 19.1 C 12.13 g/m*3 19.1 C 1.6 km/h
270 02-08-2020 22:25:00 19 C 11.9 g/m*3 19 C 1.6 km/h
271 02-08-2020 22:30:00 19.1 C 12.13 g/m*3 19.1 C 0 km/h
272 02-08-2020 22:35:00 19.1 C 11.97 g/m*3 19.1 C 3.2 km/h
273 02-08-2020 22:40:00 19.2 C 12.04 g/m*3 19.2 C 6.4 km/h
274 02-08-2020 22:45:00 19.3 C 12.27 g/m*3 19.3 C 0 km/h
275 02-08-2020 22:50:00 19.3 C 12.27 g/m*3 19.3 C 0 km/h
Sensor: Nr:Datum:Temp:Abs-Feuchte:Windchill:Wind:
Aussen-T/F 276 02-08-2020 22:55:00 19.3 C 12.27 g/m*3 19.3 C 0 km/h
277 02-08-2020 23:00:00 19.2 C 12.2 g/m*3 19.2 C 0 km/h
278 02-08-2020 23:05:00 19.2 C 12.2 g/m*3 19.2 C 1.6 km/h
279 02-08-2020 23:10:00 19.1 C 12.13 g/m*3 19.1 C 1.6 km/h
280 02-08-2020 23:15:00 19.2 C 12.2 g/m*3 19.2 C 4.8 km/h
281 02-08-2020 23:20:00 19.2 C 12.37 g/m*3 19.2 C 3.2 km/h
282 02-08-2020 23:25:00 19.2 C 12.2 g/m*3 19.2 C 0 km/h
283 02-08-2020 23:30:00 19.2 C 12.37 g/m*3 19.2 C 0 km/h
284 02-08-2020 23:35:00 19 C 12.22 g/m*3 19 C 3.2 km/h
285 02-08-2020 23:40:00 18.8 C 12.24 g/m*3 18.8 C 0 km/h
286 02-08-2020 23:45:00 18.7 C 12.33 g/m*3 18.7 C 0 km/h
287 02-08-2020 23:50:00 18.6 C 12.26 g/m*3 18.6 C 0 km/h
288 02-08-2020 23:55:00 18.4 C 12.11 g/m*3 18.4 C 1.6 km/h

Legende:
   Min
   Max


Maximal/Minimal-Werte vom 02.08.2020 - 02.08.2020

Sensor Min Max Avg
Temp
(Aussen-T/F)
16.9 °C
02-08-2020  06:50:00
26.7 °C
02-08-2020  18:15:00
21.28 °C
Abs-Feuchte
(Aussen-T/F)
10.24 g/m*3
02-08-2020  19:30:00
16.86 g/m*3
02-08-2020  01:00:00
13.31 g/m*3
Windchill
(Aussen-T/F)
16.9 C
02-08-2020  06:50:00
26.7 C
02-08-2020  18:15:00
21.21 C

Die Daten stammen von einer Davis Vantage Pro 2 Wetter-Station und werden unter Linux mit der Software wview2wettercgi und aufbereitet. Alle Angaben erfolgen ohne Gewähr für ihre Vollständigkeit oder Richtigkeit.
Kontakt: Rainer Krienke krienke@uni-koblenz.de . Meine Webseiten an der Uni Koblenz oder privat.
Version: $Revision: 0.78 $